Location: Bacharowice
(49.9333°N, 19.5833°E)
Time: 23:42:27
(UTC+00:00)

COSMOS 2487 - Pass Details

Date: 11 May 2021
Orbit: 431 x 433 km, 74.7° (Epoch: 21 June)

Event Time Altitude Azimuth Distance (km) Brightness Sun altitude
Rises 22:25:19 0° 348° (NNW) 2,419 7.6 -21.9°
Reaches altitude 10° 22:27:45 10° 5° (N) 1,546 6.2 -21.9°
Maximum altitude 22:30:24 21° 56° (NE) 1,039 4.5 -21.9°
Enters shadow 22:31:18 19° 79° (E) 1,106 4.4 -21.9°
